Lapse_Rate
6.9 7.0 6.9 6.8 6.7 7.0 7.1 6.5 6.4 6.3 6.3 6.1 6.0 6.1 6.0 5.8 5.9 5.9 6.3 6.2 6.1 5.9 5.9 5.8 5.7 5.4 5.1 5.1 5.1 5.6 5.6 5.7 5.8 5.9 5.9 6.0 6.0 6.1 6.1 6.1 6.1 6.1 6.1 6.1 6.0 6.0 6.0 5.9 6.0
6.9 6.8 6.9 7.0 7.1 7.8 7.1 6.8 6.6 6.3 6.4 6.3 6.3 5.9 6.1 6.0 6.4 6.4 6.3 6.2 6.1 6.0 5.9 5.8 5.3 5.0 5.2 5.3 5.4 5.4 5.4 5.5 5.6 5.6 5.8 5.9 5.9 6.0 6.1 6.1 6.1 6.0 6.1 6.1 6.1 6.1 6.1 6.1 6.1
6.8 6.9 6.9 7.0 7.7 8.0 7.5 6.9 6.4 6.5 6.4 6.1 6.0 6.1 5.8 6.1 6.1 6.2 6.3 6.1 6.0 5.9 5.8 5.7 5.4 5.0 5.3 5.3 5.2 5.2 5.3 5.4 5.5 5.6 5.7 5.7 5.7 5.8 5.9 6.0 6.0 6.1 6.1 6.1 6.2 6.2 6.2 6.2 6.2
7.0 7.0 7.0 7.1 8.3 7.4 7.4 7.0 6.9 6.8 6.7 6.5 6.1 6.1 6.3 6.3 6.3 6.4 6.3 6.1 6.0 5.8 5.8 5.5 5.2 5.2 5.2 5.1 5.0 5.2 5.3 5.4 5.4 5.4 5.4 5.5 5.6 5.7 5.8 5.8 5.9 6.0 6.0 6.1 6.2 6.2 6.3 6.3 6.2
7.1 7.3 7.3 7.6 8.0 7.4 7.4 7.0 7.1 6.8 6.7 6.4 6.5 6.1 6.3 6.6 6.5 6.5 6.3 6.0 5.8 5.2 5.6 5.3 5.1 5.1 4.9 4.7 4.7 4.8 5.0 5.1 5.2 5.2 5.2 5.3 5.4 5.5 5.7 5.8 5.9 5.9 5.9 5.9 6.0 6.2 6.2 6.3 6.4
7.2 7.3 7.9 8.8 8.2 7.6 7.4 7.0 6.9 7.1 7.0 6.9 6.7 6.1 6.3 6.8 6.7 6.6 6.3 5.9 5.5 5.3 5.4 5.1 4.8 4.7 4.5 4.5 4.5 4.6 4.6 4.8 4.9 4.9 5.0 5.1 5.2 5.2 5.2 5.3 5.5 5.6 5.6 5.7 5.7 6.0 6.1 6.1 6.1
7.5 7.5 8.2 8.6 8.7 7.7 7.5 7.2 7.1 7.0 6.9 6.8 6.8 6.6 6.4 6.9 6.8 6.6 6.3 5.4 5.0 5.3 4.2 5.1 4.9 4.8 4.8 4.7 4.6 4.6 4.7 4.7 4.8 4.8 4.9 5.0 5.1 5.1 5.1 5.3 5.3 5.5 5.5 5.6 5.7 5.7 5.8 5.9 6.1
7.7 7.4 8.2 8.4 8.5 8.1 7.5 7.3 7.3 7.2 7.0 7.1 7.0 6.6 6.1 6.8 6.7 6.5 6.0 4.7 4.1 4.2 3.7 4.4 4.5 4.9 4.7 4.6 4.6 4.5 4.6 4.8 4.8 4.9 5.0 5.1 5.2 5.4 5.4 5.5 5.4 5.5 5.7 5.7 5.8 5.7 5.7 5.6 5.7
7.7 7.6 8.3 8.5 8.4 8.3 7.9 7.6 7.6 7.4 7.2 7.0 6.9 6.7 6.5 6.6 6.5 6.3 5.1 4.7 4.3 3.9 3.9 3.9 4.7 4.8 4.8 4.7 4.7 4.6 4.7 4.8 4.9 5.0 5.0 5.2 5.2 5.3 5.5 5.5 5.6 5.5 5.7 5.7 5.6 5.6 5.5 5.5 5.6
7.5 7.8 8.5 8.8 8.2 8.2 8.1 7.8 7.8 7.6 7.3 7.1 6.9 6.8 6.7 6.6 6.6 6.3 4.8 4.6 4.3 4.1 4.1 4.4 4.7 5.0 5.0 4.8 4.6 4.7 4.7 4.8 4.9 4.9 5.0 5.1 5.2 5.2 5.3 5.4 5.5 5.5 5.5 5.7 5.7 5.6 5.6 5.4 5.4
7.7 7.7 8.5 8.1 7.9 8.0 8.1 8.0 7.9 7.7 7.4 7.1 6.9 6.9 6.7 6.6 6.5 6.1 4.9 4.8 4.7 4.5 4.5 4.0 4.2 5.0 4.9 4.7 4.7 4.7 4.7 4.8 4.8 4.9 4.9 5.0 5.1 5.1 5.2 5.3 5.4 5.5 5.6 5.7 5.7 5.7 5.6 5.6 5.6
7.5 7.9 8.1 7.9 8.0 8.0 8.0 8.0 8.0 7.7 7.2 7.2 7.1 6.8 6.8 6.7 6.4 5.9 5.0 4.9 4.7 4.3 4.9 4.9 4.9 4.6 4.7 4.8 4.7 4.7 4.7 4.7 4.7 4.8 4.9 5.0 5.0 5.2 5.3 5.4 5.4 5.4 5.4 5.5 5.5 5.6 5.6 5.7 5.7
7.2 7.6 7.9 7.9 8.0 8.0 7.9 7.8 7.6 7.5 7.4 7.2 7.0 6.9 6.8 6.6 6.4 5.8 5.1 4.8 4.5 5.2 4.9 4.8 4.8 4.8 4.7 4.6 4.7 4.8 4.8 4.8 4.9 4.9 5.0 5.2 5.2 5.2 5.3 5.3 5.3 5.3 5.4 5.4 5.5 5.5 5.5 5.6 5.6
7.3 7.2 7.7 7.8 7.9 7.9 7.8 7.7 7.5 7.3 7.3 7.1 7.0 7.0 6.8 6.6 6.4 6.2 6.0 5.7 5.3 5.3 5.0 5.0 4.7 4.5 4.4 4.7 4.8 4.9 4.9 4.9 5.0 5.1 5.2 5.2 5.2 5.2 5.2 5.2 5.3 5.4 5.5 5.5 5.5 5.5 5.5 5.5 5.5
7.2 7.3 7.6 7.7 7.8 7.8 7.8 7.6 7.7 7.2 7.3 7.0 7.0 7.0 6.8 6.6 6.4 6.1 6.0 5.8 5.2 5.4 5.2 5.0 4.9 4.8 4.8 4.9 4.8 4.8 4.9 5.0 5.0 5.1 5.2 5.2 5.2 5.3 5.3 5.4 5.5 5.6 5.6 5.6 5.7 5.6 5.5 5.6 5.7
7.1 7.0 7.2 7.1 7.7 7.6 7.6 7.9 7.5 7.3 7.4 7.1 7.0 6.8 6.8 6.6 6.4 6.2 6.1 5.8 5.5 5.6 5.3 5.3 5.1 5.0 5.0 5.0 4.9 4.9 4.9 5.0 5.1 5.2 5.3 5.3 5.3 5.4 5.5 5.6 5.6 5.6 5.6 5.6 5.5 5.5 5.5 5.5 5.5
7.2 7.6 7.1 6.5 6.7 7.6 7.3 7.5 7.4 7.5 7.2 7.0 6.9 6.8 6.7 6.6 6.4 6.0 6.1 5.8 5.7 5.6 5.5 5.4 5.2 5.2 5.1 5.0 5.0 5.0 5.0 5.1 5.3 5.3 5.4 5.5 5.6 5.8 5.9 5.8 5.8 5.7 5.6 5.5 5.5 5.4 5.5 5.6 5.7
8.1 7.5 7.6 7.0 6.3 7.0 7.3 7.4 7.3 7.4 7.1 7.1 6.8 6.7 6.6 6.7 6.4 5.9 6.0 5.8 5.7 5.6 5.5 5.4 5.3 5.2 5.1 5.0 5.0 5.0 5.1 5.3 5.4 5.5 5.7 5.8 5.9 5.9 5.9 5.8 5.8 5.7 5.5 5.4 5.4 5.4 5.5 5.5 5.6
7.9 7.9 7.6 7.1 6.5 6.8 7.0 7.5 7.4 7.0 7.0 7.3 7.1 6.9 6.2 6.1 5.9 6.1 6.1 5.8 5.8 5.6 5.4 5.4 5.3 5.2 5.1 5.0 5.2 5.3 5.4 5.5 5.6 5.8 5.9 6.0 6.0 6.0 6.0 5.9 5.7 5.6 5.6 5.6 5.6 5.6 5.7 5.8 5.7
7.7 8.0 7.6 7.2 6.9 6.8 6.9 6.9 7.5 7.2 7.3 7.2 7.0 7.0 6.7 5.7 5.5 6.0 6.1 5.9 5.8 5.5 5.4 5.3 5.4 5.4 5.3 5.4 5.5 5.6 5.6 5.8 5.9 6.0 6.1 6.1 6.0 5.8 5.7 5.6 5.5 5.5 5.5 5.6 5.6 5.6 5.7 5.8 5.8
7.7 7.8 7.7 7.2 7.0 6.8 6.3 7.3 8.6 7.6 7.4 7.0 6.8 6.9 6.8 5.9 5.4 5.2 6.0 5.8 5.7 5.5 5.5 5.5 5.6 5.6 5.7 5.7 5.8 5.8 5.9 5.9 5.9 6.0 6.0 5.9 5.6 5.5 5.5 5.4 5.3 5.3 5.3 5.4 5.5 5.6 5.6 5.7 5.9
7.9 7.4 7.4 7.2 7.2 7.2 7.3 8.0 8.0 7.0 6.6 6.2 6.3 6.9 6.9 6.7 5.8 5.1 5.8 5.8 5.7 5.6 5.6 5.7 5.7 5.8 5.8 5.9 6.0 6.0 6.1 6.0 5.8 6.0 5.7 5.6 5.5 5.5 5.4 5.3 5.3 5.3 5.4 5.5 5.6 5.7 5.7 5.6 5.7
7.9 7.9 7.5 7.2 7.3 7.5 7.9 7.3 8.1 7.3 6.8 6.3 6.7 6.9 7.0 7.0 6.7 6.2 6.2 6.1 5.8 5.7 5.7 5.8 5.8 5.8 5.9 6.1 6.3 6.2 6.2 5.9 5.8 5.6 5.6 5.6 5.5 5.5 5.5 5.4 5.3 5.3 5.5 5.6 5.6 5.6 5.7 5.6 5.5
7.8 7.7 7.5 7.4 7.3 7.5 8.1 7.6 8.5 7.1 6.6 6.2 6.7 6.9 7.0 7.2 7.1 6.3 6.2 6.1 6.0 5.9 5.9 6.0 5.9 6.0 6.1 6.2 6.2 6.2 5.9 5.8 5.7 5.7 5.7 5.8 5.7 5.5 5.4 5.4 5.4 5.5 5.5 5.6 5.5 5.5 5.5 5.5 5.4
7.5 7.6 8.4 8.2 7.8 8.6 7.1 7.2 7.8 6.6 6.9 6.7 6.7 6.9 7.0 7.2 7.1 6.8 6.5 6.3 6.2 6.1 6.1 6.1 6.2 6.3 6.2 6.2 6.1 5.9 6.0 6.0 5.8 5.8 5.7 5.6 5.6 5.6 5.6 5.6 5.8 5.8 5.7 5.7 5.7 5.6 5.7 5.6 5.6
7.6 7.8 8.5 8.7 9.5 9.6 7.3 7.8 7.1 7.0 6.9 6.9 6.9 6.9 6.9 6.8 6.7 6.6 6.6 6.5 6.4 6.3 6.3 6.5 6.6 6.6 6.3 6.2 6.2 6.2 6.1 6.1 6.0 5.9 5.9 5.8 5.8 5.8 5.9 6.0 6.0 6.0 5.8 5.7 5.7 5.7 5.8 5.8 5.8
7.1 7.4 7.6 7.9 8.0 8.1 8.6 7.1 7.0 7.0 6.9 6.8 6.8 6.8 6.7 6.7 6.7 6.7 6.7 6.7 6.7 6.8 6.9 6.9 6.7 6.6 6.5 6.5 6.4 6.2 6.2 6.3 6.3 6.2 6.1 6.0 6.0 6.0 6.1 6.0 5.8 5.8 5.8 5.8 5.8 6.0 6.0 6.0 6.0
7.2 7.2 7.4 7.5 8.3 8.5 9.3 8.6 8.1 6.6 6.3 6.7 6.7 6.7 6.7 6.7 6.6 6.6 6.6 6.7 6.8 6.8 6.8 6.8 6.7 6.7 6.6 6.6 6.6 6.5 6.4 6.4 6.2 6.0 6.0 6.1 6.2 6.1 5.9 5.9 5.8 5.8 5.8 5.8 5.9 5.9 5.9 6.0 6.1
6.9 7.0 7.1 7.4 7.7 8.6 8.9 9.2 7.3 6.8 6.3 6.0 6.7 6.8 6.7 6.8 6.8 6.9 7.0 6.9 6.8 6.7 6.7 6.7 6.8 6.8 6.7 6.8 6.7 6.6 6.5 6.3 6.2 6.2 6.1 6.0 5.9 5.8 5.8 5.8 5.7 5.8 5.8 5.9 5.9 5.9 6.0 6.1 6.2
7.1 7.1 7.2 7.6 7.9 7.7 7.8 7.9 7.3 6.7 7.1 6.8 7.0 6.9 6.8 6.9 6.9 6.8 6.6 6.5 6.4 6.4 6.4 6.4 6.5 6.6 6.6 6.6 6.5 6.4 6.4 6.4 6.2 6.0 5.8 5.8 5.8 5.7 5.6 5.6 5.7 5.8 5.8 5.8 5.9 6.1 6.1 6.2 6.3
Wind_Speed
12 8 6 4 4 5 3 5 3 5 4 3 3 9 11 12 10 5 6 8 8 8 15 13 10 11 10 10 9 10 10 10 11 10 11 13 13 13 14 14 14 15 16 16 15 15 14 14 13
6 3 4 4 5 4 5 6 5 5 6 8 5 2 6 11 13 11 10 8 10 9 11 15 11 11 10 8 8 9 9 10 10 10 10 11 12 12 13 13 13 13 13 13 13 13 13 13 11
7 6 4 4 4 4 6 4 8 9 7 2 3 4 3 4 6 8 13 11 11 8 12 14 12 10 9 8 7 8 9 9 9 10 10 10 10 11 11 12 12 12 12 12 12 12 13 13 12
3 4 5 8 4 3 6 9 12 9 2 1 2 7 6 8 4 12 12 12 11 10 16 13 11 10 8 7 8 8 8 8 8 8 9 9 10 10 11 12 12 13 13 13 13 12 11 11 12
5 5 9 10 2 5 5 12 12 7 5 5 3 8 5 6 9 14 12 10 10 9 15 13 10 8 7 6 7 8 8 7 8 8 7 7 8 9 10 11 11 12 12 12 12 11 10 10 10
6 4 11 9 7 6 7 11 9 5 5 6 4 7 7 11 11 12 11 9 9 9 12 12 11 8 7 7 7 9 9 7 5 6 7 7 7 8 8 9 9 9 9 11 12 11 10 9 8
9 9 13 9 6 8 6 9 7 5 5 5 4 4 8 13 12 12 11 10 9 10 8 16 14 11 9 9 9 11 11 12 13 11 10 11 11 14 12 14 14 14 14 14 12 11 10 8 7
5 6 15 7 7 8 8 9 1 3 4 4 2 2 7 13 13 12 11 11 10 8 8 9 9 14 9 12 14 13 13 13 12 10 9 10 12 13 14 13 14 14 14 14 13 12 11 9 4
3 8 10 11 8 7 10 12 5 3 2 6 6 2 6 15 14 12 11 9 9 7 6 12 7 14 13 12 12 13 11 9 7 8 4 4 8 9 11 13 12 13 11 11 11 12 11 13 10
8 10 14 3 7 6 13 12 10 6 8 7 7 4 6 13 13 14 11 10 9 9 6 8 9 9 7 9 10 9 7 6 6 6 6 7 8 7 5 7 9 9 12 5 9 7 10 12 12
8 13 9 3 3 5 13 11 9 7 7 8 10 11 11 14 14 14 13 11 12 9 5 7 9 12 9 9 8 5 5 6 7 8 7 8 7 8 9 8 10 11 12 12 13 12 12 12 12
10 12 6 5 4 8 12 10 8 10 2 4 2 8 13 15 14 14 14 10 8 9 6 6 7 6 8 7 5 6 6 6 7 8 9 8 7 8 8 8 9 10 11 11 11 10 12 12 13
13 5 3 4 7 7 8 9 4 10 4 3 3 8 12 13 12 11 7 6 8 10 9 8 8 8 8 7 7 7 6 7 8 9 9 8 7 6 7 8 9 9 11 11 11 11 12 12 12
5 1 3 5 7 5 8 5 2 8 6 6 7 10 12 13 12 10 9 10 10 10 9 10 9 8 9 7 8 7 8 8 8 8 8 8 8 7 7 7 8 9 11 12 12 11 9 8 12
1 6 4 5 5 3 5 7 11 6 8 8 9 10 11 12 11 11 11 11 10 10 9 9 8 8 8 9 9 8 7 8 7 7 7 8 7 8 7 7 7 9 10 12 12 12 12 8 10
6 3 4 5 1 4 5 9 10 7 8 8 10 10 11 12 13 12 11 10 10 10 10 10 7 8 9 8 8 8 8 7 6 6 5 6 6 6 7 6 6 9 9 9 8 7 8 8 9
9 11 15 8 3 2 7 8 7 4 6 8 9 10 12 12 13 12 11 11 10 10 11 10 10 9 9 8 7 7 7 5 4 4 4 4 3 4 4 5 6 8 7 7 6 7 8 8 8
16 16 13 11 9 10 10 15 5 7 7 9 10 11 12 13 15 13 12 11 10 10 11 11 9 9 9 6 5 4 4 4 4 3 2 3 2 1 4 5 6 7 5 6 6 8 8 8 8
6 10 13 3 3 4 12 13 11 8 10 9 11 12 12 13 13 12 13 12 11 10 10 11 10 10 7 5 5 5 4 5 3 4 3 3 2 2 4 4 6 8 6 8 8 8 10 8 9
11 11 11 5 3 2 14 20 15 5 4 5 8 11 13 13 14 15 14 13 13 11 10 10 10 9 7 5 5 4 4 4 4 5 5 5 5 4 6 6 5 7 6 8 9 8 7 8 8
12 12 9 7 4 6 14 15 16 7 4 2 2 5 10 12 14 15 15 14 12 11 10 10 10 10 8 8 4 3 2 2 3 5 5 7 6 6 7 8 8 8 7 7 8 8 8 8 8
14 6 4 6 4 7 5 8 8 8 5 2 6 6 3 7 11 13 14 14 13 11 10 10 10 10 9 8 7 9 7 7 6 2 3 4 8 8 8 9 11 10 8 9 8 8 9 9 9
4 6 5 5 7 6 12 5 1 5 5 5 8 8 6 2 8 12 13 13 12 10 9 9 9 9 9 9 9 7 8 7 6 5 6 7 8 10 9 11 12 9 8 10 12 12 12 9 9
9 8 6 4 5 8 11 7 3 3 6 5 6 9 7 4 5 9 9 9 9 8 8 7 10 10 9 9 10 9 10 10 8 7 6 6 6 6 10 12 12 13 10 11 10 11 13 12 12
7 7 5 6 5 5 4 4 5 6 5 5 6 9 9 8 6 6 8 6 5 7 8 8 9 10 10 10 9 10 8 9 9 8 6 8 7 7 9 10 11 9 11 11 11 11 12 13 11
10 7 7 6 6 1 5 6 5 7 6 8 8 9 10 10 8 6 4 4 4 5 6 8 8 9 9 7 7 6 6 5 5 6 6 7 7 8 11 11 14 15 17 14 13 10 10 12 11
6 6 4 7 7 8 8 7 7 7 7 8 9 9 9 9 10 10 8 7 6 6 5 3 3 4 4 5 5 6 5 6 6 8 8 7 10 9 12 14 14 14 15 14 14 10 13 13 13
4 2 3 4 4 7 6 4 3 11 9 9 9 10 9 9 9 9 9 8 7 7 5 5 3 1 1 3 4 4 6 7 7 8 10 11 11 12 13 13 15 14 15 15 14 12 14 14 11
5 5 4 4 3 5 6 4 7 10 10 8 8 8 8 8 7 7 7 6 5 4 3 2 2 2 3 3 4 6 7 8 9 9 11 12 12 14 14 15 14 15 15 16 15 16 16 16 15
4 4 6 5 5 4 3 1 1 9 7 7 8 7 6 6 5 5 4 3 3 4 4 4 5 5 4 5 6 8 8 9 10 11 13 13 14 14 15 15 15 16 15 16 16 16 16 15 14
Wind_Direction
267 222 235 237 245 238 112 92 102 112 132 51 50 14 58 26 12 41 135 112 119 130 117 126 117 115 98 89 80 66 64 63 58 55 52 51 49 47 44 43 39 43 41 42 43 42 43 42 41
279 240 245 269 250 247 101 125 126 76 99 98 89 96 42 74 77 107 133 115 131 136 129 108 121 106 101 93 96 73 70 68 63 58 55 53 49 47 44 43 43 40 36 36 36 44 40 38 34
246 228 263 243 265 75 119 138 112 117 127 168 119 17 78 87 44 90 106 138 129 130 107 106 120 110 106 101 90 82 75 71 67 61 57 53 49 47 48 48 46 42 39 34 34 32 37 39 34
214 199 241 255 220 79 120 139 142 145 141 238 343 101 89 30 104 118 130 135 130 133 108 123 127 113 112 103 95 85 76 71 67 63 60 56 53 52 54 51 46 42 39 37 34 32 27 29 34
232 262 254 236 113 140 125 139 156 165 132 154 214 120 94 114 114 125 136 138 133 122 113 130 128 114 114 112 107 85 77 75 71 66 61 58 55 55 52 48 43 39 40 40 36 33 29 28 21
245 262 253 234 169 151 150 154 170 176 134 111 202 134 125 133 150 140 145 144 131 125 131 133 134 130 122 111 98 92 80 69 79 71 59 61 64 59 51 45 42 34 37 38 35 32 29 27 23
249 233 254 276 143 176 167 172 175 189 159 159 9 173 103 161 155 153 159 148 147 138 141 153 139 133 117 98 89 90 80 72 73 73 64 69 69 61 57 55 45 42 40 37 27 24 18 17 16
275 270 253 248 181 199 159 168 281 214 136 73 307 169 168 162 159 168 162 156 153 152 150 127 138 132 124 108 92 90 84 80 78 80 81 97 85 62 53 47 40 44 42 34 23 14 7 351 340
269 248 241 227 228 164 159 175 179 62 161 203 172 323 63 137 169 177 176 169 164 164 189 103 144 116 116 117 107 99 95 100 108 121 130 121 65 61 64 54 45 41 34 31 18 8 350 325 260
228 232 244 280 191 169 177 191 168 189 199 197 190 151 160 163 178 187 174 182 197 184 164 142 143 129 148 111 121 116 127 103 72 56 57 64 70 55 65 71 45 37 7 9 356 353 324 346 348
216 247 246 127 188 191 177 192 169 212 203 234 208 179 182 182 190 194 197 194 189 165 130 180 144 146 134 144 156 134 106 96 71 53 66 52 48 39 31 30 22 10 16 6 2 359 3 348 342
248 237 276 142 150 174 174 178 199 218 89 16 163 158 179 190 190 201 207 196 150 133 151 144 137 126 122 123 107 104 91 81 75 56 51 44 41 40 38 35 24 19 7 3 1 355 349 342 335
234 222 233 160 167 189 162 177 217 217 206 203 176 167 181 193 192 201 195 162 147 153 150 134 126 134 132 113 107 103 97 84 80 70 56 54 58 48 44 35 29 22 9 4 357 351 348 341 339
335 187 170 179 157 164 194 174 218 206 153 206 191 184 186 195 190 180 176 172 170 149 151 144 142 127 133 119 110 103 97 88 84 79 68 59 63 51 37 34 29 19 11 1 357 348 349 337 334
313 184 174 206 181 140 265 216 224 148 183 190 197 187 190 192 184 186 184 180 172 157 146 139 135 140 132 116 112 117 121 110 104 96 83 72 54 45 47 36 28 14 8 359 357 350 343 337 332
219 218 220 129 188 88 282 260 112 152 183 202 199 191 190 193 192 189 184 180 163 148 159 139 149 154 136 136 140 134 131 121 120 110 99 78 60 42 42 35 28 7 5 353 353 345 338 333 326
205 216 216 239 254 237 219 274 102 155 201 212 218 214 193 198 198 200 173 177 168 165 152 156 168 159 148 148 142 137 137 137 128 138 127 106 68 30 34 19 4 6 353 344 344 337 334 324 320
211 223 207 232 233 254 243 259 236 178 224 242 236 229 213 209 199 193 177 177 172 170 165 165 166 160 158 150 148 154 164 169 175 166 173 180 142 6 352 341 348 348 339 337 335 328 322 317 312
267 225 227 220 51 280 270 278 285 257 201 244 260 253 228 212 197 188 184 181 175 176 177 173 174 170 164 179 176 190 204 196 203 199 214 222 283 270 302 318 326 334 325 326 318 318 318 315 316
238 226 215 194 138 284 318 287 281 324 307 314 292 259 244 211 206 185 186 187 182 185 187 182 182 183 178 198 203 218 210 217 215 198 223 238 244 269 290 310 318 311 315 311 312 315 308 305 306
216 242 221 231 144 197 262 265 246 160 159 140 339 287 279 231 207 186 189 191 189 192 191 198 192 190 201 209 215 239 267 303 242 235 231 228 242 266 278 295 300 306 307 302 304 299 299 294 297
232 172 247 196 203 249 214 287 224 160 169 105 20 14 318 247 215 188 191 193 194 200 192 210 208 203 210 208 229 232 239 247 250 277 256 259 251 266 279 288 294 298 297 294 297 295 296 297 288
222 157 183 204 244 291 234 253 198 162 184 34 23 22 33 279 218 194 184 191 197 193 201 211 222 221 218 230 222 251 252 269 267 273 263 258 261 262 279 288 294 292 294 294 296 294 288 286 286
143 140 164 213 253 246 250 218 203 117 29 1 34 44 48 84 179 182 165 175 188 191 201 213 232 232 234 231 247 239 262 265 268 264 261 270 280 287 287 289 293 295 294 293 294 292 286 284 280
218 197 218 207 198 253 103 223 28 88 54 61 74 70 70 96 126 148 147 169 193 194 210 224 232 245 246 246 244 256 249 271 274 275 283 294 294 294 296 301 299 296 292 288 284 281 279 280 276
204 275 270 289 293 75 162 236 96 102 100 104 97 88 86 85 94 115 133 172 189 213 228 233 246 246 254 266 258 255 254 261 283 288 292 292 293 294 301 297 294 293 294 292 289 284 281 278 276
145 225 7 281 253 271 249 121 133 133 118 116 102 94 87 87 86 89 84 74 74 63 44 351 297 283 297 254 253 248 251 248 271 289 289 292 295 297 299 299 293 293 292 291 290 284 282 281 280
318 29 199 202 260 253 180 237 128 172 150 134 121 106 99 95 91 86 79 72 66 64 55 48 28 358 241 259 267 293 289 291 289 288 295 302 300 295 295 293 292 293 292 290 287 284 280 280 277
171 209 235 307 286 298 294 96 55 158 153 144 123 112 110 100 92 87 82 78 69 51 31 2 321 280 261 276 298 287 292 303 306 300 297 294 297 296 295 295 293 292 291 290 288 286 284 280 278
308 272 242 249 172 242 293 296 105 109 138 150 139 138 122 115 109 96 91 60 24 5 351 337 320 301 286 291 291 294 302 298 299 300 303 302 300 300 298 298 296 294 292 291 290 288 285 283 282